Location: D�derode
(51.8092°N, 10.1065°E)
Time: 02:10:24
(UTC+00:00)

BREEZE-M DEB (TANK) - Pass Details

Date: 20 April 2021
Orbit: 314 x 13086 km, 49.6° (Epoch: 09 May)

Event Time Altitude Azimuth Distance (km) Brightness Sun altitude
Rises 01:41:40 0° 288° (WNW) 6,159 7.9 -19.5°
Reaches altitude 10° 01:47:29 10° 282° (WNW) 3,646 6.7 -19.0°
Enters shadow 01:52:50 30° 249° (WSW) 1,360 4.3 -18.4°
